Skip Page Navigation
NASA JPL Caltech
NASA Logo - Jet Propulsion Laboratory + View the NASA Portal
+ Near-Earth Object (NEO) Program
Search JPL
JPL Home Earth Solar System Stars & Galaxies Technology
JPL Solar System Dynamics
BODIES ORBITS EPHEMERIDES TOOLS PHYSICAL DATA DISCOVERY FAQ SITE MAP
JPL Small-Body Database Browser
Search: [ help ]  
318 Magdalena
Classification: Main-belt Asteroid          SPK-ID: 2000318
Ephemeris | Orbit Diagram | Orbital Elements | Physical Parameters | Discovery Circumstances ]

[ hide orbit diagram ]
Orbit Diagram
Note: Make sure you have Java enabled on your browser to see the applet. This applet is provided as a 3D orbit visualization tool. The applet was implemented using 2-body methods, and hence should not be used for determining accurate long-term trajectories (over several years or decades) or planetary encounter circumstances. For accurate long-term ephemerides, please instead use our Horizons system.
Orbit Viewer

Additional Notes: the orbits shown in the applet are color coded. The planets are white lines, and the asteroid/comet is a blue line. The bright white line indicates the portion of the orbit that is above the ecliptic plane, and the darker portion is below the ecliptic plane. Likewise for the asteroid/comet orbit, the light blue indicates the portion above the ecliptic plane, and the dark blue the portion below the ecliptic plane.

Orbit Viewer applet originally written and kindly provided by Osamu Ajiki (AstroArts), and further modified by Ron Baalke (JPL).


Orbital Elements at Epoch 2456400.5 (2013-Apr-18.0) TDB
Reference: MPO253361 (heliocentric ecliptic J2000)
 Element Value Uncertainty (1-sigma)   Units 
e 0.0846859 n/a  
a 3.1940921 n/a AU
q 2.9235975 n/a AU
i 10.63929 n/a deg
node 161.63798 n/a deg
peri 298.68019 n/a deg
M 309.47590 n/a deg
tp 2456693.1278478
(2014-Feb-04.62784780)
n/a JED
period 2085.0648542
5.71
n/a
n/a
d
yr
n 0.17265650 n/a deg/d
Q 3.4645867 n/a AU
  Orbit Determination Parameters
   # obs. used (total)      1364  
   first obs. used      1891-??-??  
   last obs. used      2013-01-26  
   # oppositions      44  
   planetary ephem.      DE403  
   condition code      0  
   fit RMS      0.57  
   data source      MPC:mpn  
   producer      MPCLINUX  

Additional Information
 T_jup = 3.164 

Ephemeris | Orbit Diagram | Orbital Elements | Physical Parameters | Discovery Circumstances ]

Physical Parameter Table
Parameter Symbol Value Units Sigma Reference Notes
absolute magnitude H 9.40 mag n/a PDS3 (MPC 17258)  
diameter diameter 85 km n/a J.G. Williams (E-mail September 1990) based on assumed albedo of 0.048 for C-type
rotation period rot_per 59.5 h n/a Asteroid Lightcurve DataBase (Rev. 2013-May-01) Result based on fragmentary lightcurve(s), may be completely wrong.
Published Reference List:
[Behrend, R. (2004) Observatoire de Geneve web site, http://obswww.unige.ch/~behrend/page_cou.html]
B-V BV .685 mag .037 EAR-A-5-DDR-UBV-MEAN-VALUES-V1.1 #obs=1; phase=6.81 deg.
U-B UB .290 mag .078 EAR-A-5-DDR-UBV-MEAN-VALUES-V1.1 #obs=1; phase=6.81 deg.
Tholen spectral type spec_T CXF   n/a EAR-A-5-DDR-TAXONOMY-V4.0 used 2 color indices

318 Magdalena          Discovered 1891-Sep-24 by Charlois, A. at Nice
Reference: DISCOVERY.DBLast Updated: 2003-08-29
Ephemeris | Orbit Diagram | Orbital Elements | Physical Parameters | Discovery Circumstances ]
ABOUT SSD CREDITS/AWARDS PRIVACY/COPYRIGHT GLOSSARY LINKS
FirstGov 2013-May-20 15:36 UT
(server date/time)  
NASA Home Page
Site Manager:   Donald K. Yeomans
Webmaster  Alan B. Chamberlin